GAOFEN 12-3

Last updated on Tue Nov 21 2023 00:02:25 GMT+0000 (Coordinated Universal Time)

1 52912U 22069A 23324.58388052 .00001592 00000+0 21242-3 0 9991 2 52912 97.9313 213.0779 0001949 77.2983 282.8447 14.80966532 75585

Satellite not in orbit

GAOFEN 12-3